Regional Weather Roundup
Issued by NWS

Home | Current Version | Previous Version | Text Only | Print | Product List | Glossary On
Versions: 1 2 3 4 5 6 7 8 9 10 11 12 13 14 15 16 17 18 19 20 21 22 23 24 25 26 27 28 29 30 31 32 33 34 35 36 37 38 39 40 41 42 43 44 45 46 47 48 49 50
007
ASPQ40 PGUM 222310
RWRPQ
WEATHER ROUNDUP FOR THE MARIANAS AND MICRONESIA
NATIONAL WEATHER SERVICE TIYAN GU
900 AM CHST MON APR 23 2018

GUZ001>004-230000-
MARIANA ISLANDS-

CITY           SKY/WX    TMP DP  RH WIND       PRES   REMARKS
GUAM AIRPORT   MOSUNNY   82  77  83 E10       29.88R HX  91
ANDERSEN AFB   MOSUNNY   79  75  89 E13       29.88S
ROTA AIRPORT   MOSUNNY   81  73  78 E12G18    29.88R
TINIAN AP      MOSUNNY   82  75  78 E14       29.87R
SAIPAN AP      MOSUNNY   82  75  78 E18G25    29.88R

$$

PMZ161-230000-
REPUBLIC OF PALAU-

CITY           SKY/WX    TMP DP  RH WIND       PRES   REMARKS
KOROR AP       MOSUNNY   82  75  78 NE5       29.79S
KOROR WSO      CLOUDY    84  77  79 N5        29.81R HX  94

$$

PMZ171>174-230000-
FEDERATED STATES OF MICRONESIA-

CITY           SKY/WX    TMP DP  RH WIND       PRES   REMARKS
YAP AIRPORT    MOSUNNY   84  75  74 VRB3      29.82R HX  92
CHUUK AP       CLOUDY    84  79  84 VRB6      29.79S HX  96
POHNPEI AP     CLOUDY    86  79  79 NW7       29.76F HX  99
POHNPEI WSO    CLOUDY    90  81  74 N5        29.80S HX 108
KOSRAE AP      CLOUDY    82  77  83 E13       29.77S HX  91

$$

PMZ181-230000-
REPUBLIC OF THE MARSHALL ISLANDS-

CITY           SKY/WX    TMP DP  RH WIND       PRES   REMARKS
KWAJALEIN AP   MOSUNNY   86  77  74 E18       29.81S HX  97
MAJURO AP      PTSUNNY   84  77  79 E9        29.82F HX  94
MAJURO WSO     PTSUNNY   86  77  74 E7        29.80F HX  97

$$





USA.gov is the U.S. government's official web portal to all federal, state and local government web resources and services.